Regional Weather Roundup
Issued by NWS

Home | Current Version | Previous Version | Text Only | Print | Product List | Glossary On
Versions: 1 2 3 4 5 6 7 8 9 10 11 12 13 14 15 16 17 18 19 20 21 22 23 24 25 26 27 28 29 30 31 32 33 34 35 36 37 38 39 40 41 42 43 44 45 46 47 48 49 50
000
ASUS46 KSTO 241615
RWRCA

NORTHERN AND CENTRAL CA REGIONAL WEATHER ROUNDUP
NATIONAL WEATHER SERVICE SACRAMENTO CA
900 AM PDT WED AUG 24 2016

NOTE: FAIR INDICATES FEW OR NO CLOUDS BELOW 12,000 FEET WITH NO
SIGNIFICANT WEATHER AND/OR OBSTRUCTIONS TO VISIBILITY.

CAZ001-003-241700-
NORTHWEST AREA

CITY           SKY/WX    TMP DP  RH WIND       PRES   REMARKS
CRESCENT CITY  FOG       52  51  97 N7        30.11F VSB 1/2
UKIAH          SUNNY     58  49  72 CALM      30.09S
$$

CAZ006-505>513-241700-
BAY AREA

CITY           SKY/WX    TMP DP  RH WIND       PRES   REMARKS
SANTA ROSA     LGT RAIN  55  54  96 S5        30.09S FOG
SAN RAFAEL     N/A       57  MM  MM MISG
NAPA           CLOUDY    58  53  84 W7        30.11R
CONCORD        MOSUNNY   62  51  67 SW5       30.09S
OAKLAND CITY   N/A       57  MM  MM MISG
OAKLAND        CLOUDY    60  55  83 W8        30.12R
SAN FRAN CITY  N/A       57  MM  88 MISG
SAN FRAN ARPT  CLOUDY    60  53  77 W8        30.11R
LIVERMORE      CLOUDY    61  53  75 W5        30.09R
HAYWARD        CLOUDY    61  52  72 MISG      30.11R
REDWOOD CITY   N/A       63  MM  78 MISG
MOFFETT ARPT   CLOUDY    63  55  75 VRB6      30.11R
SAN JOSE ARPT  CLOUDY    63  55  75 NE3       30.11R
$$
CAZ034-037-514>518-241700-
CENTRAL COAST

CITY           SKY/WX    TMP DP  RH WIND       PRES   REMARKS
WATSONVILLE    CLOUDY    58  56  93 CALM      30.12R
SALINAS        CLOUDY    59  53  80 S5        30.12S
MONTEREY       CLOUDY    57  53  86 CALM      30.13R
SAN LUIS OBISP CLOUDY    60  55  83 NW9       30.10S
SANTA MARIA    CLOUDY    56  55  97 W6        30.11R FOG
$$
CAZ015-016-241700-
NORTHERN SACRAMENTO VALLEY

CITY           SKY/WX    TMP DP  RH WIND       PRES   REMARKS
REDDING        SUNNY     75  52  44 NE3       30.04S
RED BLUFF      SUNNY     71  53  52 CALM      30.06R
OROVILLE       SUNNY     68  52  56 CALM      30.06F
$$
CAZ016>018-241700-
SOUTHERN SACRAMENTO VALLEY

CITY           SKY/WX    TMP DP  RH WIND       PRES   REMARKS
AUBURN         SUNNY     75  34  22 CALM      30.09R
BEALE AFB      SUNNY     66  53  61 W5        30.04S
LINCOLN        FAIR      64  50  59 CALM      30.05S
MARYSVILLE     SUNNY     65  53  65 CALM      30.06S
SAC INTL ARPT  SUNNY     60  53  77 S3        30.05R
MATHER AIRPORT SUNNY     61  54  77 SW5       30.06S
DOWNTOWN SAC   N/A       63  MM  MM MISG
SAC EXEC ARPT  SUNNY     61  54  77 W5        30.06R
VACAVILLE      SUNNY     66  54  65 CALM      30.07R
TRAVIS AFB     SUNNY     61  52  73 SW13      30.05R
$$
CAZ019>021-241700-
SAN JOAQUIN VALLEY

CITY           SKY/WX    TMP DP  RH WIND       PRES   REMARKS
STOCKTON       SUNNY     65  55  70 NW6       30.06R
MODESTO        SUNNY     67  53  61 NW8       30.05R
MERCED         SUNNY     69  51  52 N10       30.04R
LEMOORE        SUNNY     74  48  39 NW7       30.05R
FRESNO         SUNNY     76  48  37 NW3       30.05R
HANFORD        SUNNY     74  52  46 VRB3      30.05S
PORTERVILLE    SUNNY     75  54  47 VRB3      30.06S
BAKERSFIELD    SUNNY     78  52  40 SE6       30.05S
$$
CAZ011-012-071-241700-
NORTHERN MOUNTAINS

CITY           SKY/WX    TMP DP  RH WIND       PRES   REMARKS
YREKA          SUNNY     61  32  33 CALM      30.19S
MOUNT SHASTA   SUNNY     64  44  48 CALM      30.20S
ALTURAS        SUNNY     59  31  34 CALM      30.25S
$$
CAZ011-012-071-241700-
SIERRA NEVADA MTNS

CITY           SKY/WX    TMP DP  RH WIND       PRES   REMARKS
BLUE CANYON    SUNNY     70   9   9 S8        30.29R
TRUCKEE        SUNNY     48  28  46 CALM      30.34F
TAHOE VLY ARPT SUNNY     60  31  33 NE3       30.33S
MAMMOTH LAKES  FAIR      59  38  45 SE6       30.40S
$$




USA.gov is the U.S. government's official web portal to all federal, state and local government web resources and services.